Regional Weather Roundup
Issued by NWS

Home | Current Version | Previous Version | Text Only | Print | Product List | Glossary On
Versions: 1 2 3 4 5 6 7 8 9 10 11 12 13 14 15 16 17 18 19 20 21 22 23 24 25 26 27 28 29 30 31 32 33 34 35 36 37 38 39 40 41 42 43 44 45 46 47 48 49 50
000
ASUS43 KLSX 071007
RWRMO

WEATHER SUMMARY FOR MISSOURI
NATIONAL WEATHER SERVICE SPRINGFIELD MO
400 AM CST SUN FEB 07 2016

NOTE: "FAIR" INDICATES FEW OR NO CLOUDS BELOW 12,000 FEET WITH NO
       SIGNIFICANT WEATHER AND/OR OBSTRUCTIONS TO VISIBILITY.
       CURRENT SKY AND/OR WEATHER CONDITIONS ARE NOT AVAILABLE FOR
       CHILLICOTHE AND FARMINGTON.

MOZ001>031-035>038-043-044-053-054-071100-
...NORTHERN AND WESTERN MISSOURI...

CITY           SKY/WX    TMP DP  RH WIND       PRES   REMARKS
KANSAS CTY INT PTCLDY    38  27  64 SW13      29.99S WCI  30
KANSAS C DTWN  PTCLDY    43  26  51 SW16      29.99F
LEE`S SUMMIT   CLOUDY    39  27  62 SW16      29.99F
ST JOSEPH      PTCLDY    37  27  67 SW10      29.97F WCI  30
CHILLICOTHE      N/A     39  28  64 SW6       29.98F
KIRKSVILLE     MOCLDY    39  27  62 SW14      29.94F

$$
MOZ066>068-077>081-088>096-101>105-071100-
...SOUTHWEST MISSOURI...

CITY           SKY/WX    TMP DP  RH WIND       PRES   REMARKS
SPRINGFIELD    CLEAR     34  26  72 S13       30.11F WCI  25
JOPLIN         CLEAR     40  28  62 SW14      30.13F

$$
MOZ032>034-039>042-045>050-055>058-069>072-071100-
...CENTRAL MISSOURI...

CITY           SKY/WX    TMP DP  RH WIND       PRES   REMARKS
COLUMBIA       CLOUDY    36  28  73 S9        30.05F WCI  29
JEFFERSON CITY CLEAR     39  29  67 S6        30.07F
ROLLA          PTCLDY    36  27  69 S13       30.07F WCI  27
SEDALIA        CLEAR     40  27  59 SW20G25   30.05F
WHITEMAN AFB   CLOUDY    37  28  70 SW17      30.02F WCI  28
WARRENSBURG    CLOUDY    37  28  70 S14       30.02F WCI  29
OSAGE BEACH    CLEAR     36  25  64 S7        30.09F WCI  30

$$
MOZ051-052-059>065-071100-
...EAST CENTRAL MISSOURI...

CITY           SKY/WX    TMP DP  RH WIND       PRES   REMARKS
ST LOUIS INTL  MOCLDY    43  20  39 S9        30.09F
SPIRIT OF STL  CLOUDY    42  24  49 S9        30.08F
ST CHARLES     CLOUDY    36  26  67 S10       30.07F WCI  28

$$
MOZ072>076-082>087-097>100-106>115-071100-
...SOUTH CENTRAL AND SOUTHEAST MISSOURI...

CITY           SKY/WX    TMP DP  RH WIND       PRES   REMARKS
CAPE GIRARDEAU CLOUDY    28  23  81 CALM      30.19F
FARMINGTON     CLEAR     36  18  48 CALM      30.15F
POPLAR BLUFF   CLOUDY    33  23  66 SW5       30.20F WCI  29
WEST PLAINS    CLOUDY    34  17  50 SW5       30.18F WCI  30

$$


USA.gov is the U.S. government's official web portal to all federal, state and local government web resources and services.